FREGAT R/B, 40297

Orbit data source: Space-Track

FREGAT R/B, 40297 is space debris in HEO originally from a launch on Thu, 30 Oct 2014 UTC launched from the Plesetsk Missile And Space Complex (PKMTR). Debris objects in space refer to the collection of defunct objects orbiting the Earth. Examples of debris include non-operational satellites, rocket bodies, and fragments generated from explosions, collisions, or faulty payload assembly.

Loading next visibility...
Identifier
40297, 2014-069B
Orbit
HEO
Last TLE update
1 day ago
Origin
Manufacturer
Lavochkin
Mission
Spacecraft
Bus & Motor
FREGAT, Unknown motor
Mass
1,000 kg wet, 1,000 kg dry
Launch date (UTC)
2014-10-30 (11 years ago)
Launch vehicle
Unknown
Launch site
Plesetsk Missile And Space Complex (PKMTR)
Object type
Payload
Rocket body
Debris
Shape & HBR
Irr, 3.3 m
Radar Cross Section
11.055 m², Large (>1 m²)

Expand to show TLE details & history

TLE from 1 day ago
0 FREGAT R/B
1 40297U 14069B   25127.80853658 -.00000976  00000-0  00000-0 0  9995
2 40297  63.7617 246.5854 6811446 272.9183  17.3885  2.00867102 77080
Epoch: 2025-05-07T19:24Z
Definitive object data (Epoch: 2025-05-07T19:24:17.56Z)
Latitude
0.00018°
Longitude
89.56817°
Altitude
7,374.728 km
Speed
6.554 km/s
True Right ascension
16h 26m 07s
True Declination
0° 00' 01"
Sunlit
Object was in full shadow at TLE epoch
Visualization TLE readout
Latitude
-63.82057°
Longitude
3.91453°
Altitude
2,111.303 km
Speed
8.892 km/s
Apparent Right ascension
05h 55m 52s
Apparent Declination
-68° 48' 35"
Sunlit
Object is in daylight
Visualization observer readout
Local Sidereal Time
14:48:55
Azimuth
205.328° SW
Elevation
-52.025°
Doppler factor
1
Orbital elements
Apogee altitude
38,227.216 km
Perigee altitude
2,081.967 km
Semi-major axis
26,532.729 km
Eccentricity
0.6811446
Inclination
63.7617°
RAAN
246.5854°
Arg. of periapsis
272.9183°
True anomaly
87.087°
Mean anomaly
17.3885°
Eccentric anomaly
44.97019°
Mean motion
0.50219 °/min
BSTAR
Unknown
Orbital period
716.86 mins
Loading maneuver chart data...
Loading SW <> Apogee altitude chart data...
Loading historical data...
Loading historical data...
Loading historical data...
Loading historical data...
Loading historical data...
Loading historical data...
Loading historical data...
Other satellites on launch #69 in the year 2014 (2014-10-30 UTC)

FREGAT R/B Visibility forecast

Observer location: undefined°, undefined°

Span
Click to sort rows by Start time (UTC) header in descending order
Start Az.
Max El. time (UTC)
Max El. Az.
Max El.
End time (UTC)
End Az.
651 mins2025-05-09 07:09:03.352Z163.077° S2025-05-09 08:34:03.352Z70.841° E42.691°2025-05-09 18:00:03.352Z134.365° SE
|